Marshfield, MA

10:49 AM EST on January 24, 2017 (GMT -0500)
Marshfield

Weather History for KGHG - December, 2011

Change the Weather History Date:

Monday, December 5, 2011

  Actual Average (KPYM) Record (KPYM)
Temperature  
Mean Temperature 53 °F -  
Max Temperature 62 °F 42 °F 64 °F (1982)
Min Temperature 44 °F 24 °F 8 °F (1976)
Degree Days  
Heating Degree Days 12    
Growing Degree Days 3 (Base 50)    
Moisture  
Dew Point 50 °F    
Average Humidity 90    
Maximum Humidity 100    
Minimum Humidity 68    
Precipitation  
Precipitation 0.00 in - - ()
Sea Level Pressure  
Sea Level Pressure 30.34 in    
Wind  
Wind Speed 5 mph (SSW)    
Max Wind Speed 10 mph    
Max Gust Speed -    
Visibility 9 miles    
Events      
Averages and records for this station are not official NWS values.
T = Trace of Precipitation, MM = Missing Value Source: NWS Daily Summary

Daily Weather History Graph

Daily Weather History Graph

Search for Another Location

Airport or City:

Trip Planner

Search our weather history database for the weather conditions in past years. The results will help you decide how hot, cold, wet, or windy it might be!

Date:

Astronomy

Dec. 05, 2011 Rise Set
Actual Time 6:55 AM EST 4:11 PM EST
Civil Twilight 6:23 AM EST 4:42 PM EST
Nautical Twilight 5:48 AM EST 5:17 PM EST
Astronomical Twilight 5:15 AM EST 5:51 PM EST
Moon 1:10 PM EST (12/5) 2:10 AM EST (12/5)
Length of Visible Light 10h 18m
Length of Day
9h 15m
Waxing Gibbous, 79% of the Moon is Illuminated
Dec 5
Waxing Gibbous
Dec 10
Full
Dec 17
Last Quarter
Dec 24
New
Jan 1
First Quarter

Hourly Weather History & Observations

Time (EST) Temp. Windchill Dew Point Humidity Pressure Visibility Wind Dir Wind Speed Gust Speed Precip Events Conditions
12:15 AM 48.2 °F - 48.2 °F 100% 30.41 in 10.0 mi SSW 8.1 mph - N/A   Light Drizzle
12:35 AM 48.2 °F - 48.2 °F 100% 30.41 in 10.0 mi SSW 5.8 mph - N/A   Light Drizzle
12:55 AM 48.2 °F - 48.2 °F 100% 30.40 in 10.0 mi SSW 4.6 mph - N/A   Light Drizzle
1:15 AM 48.2 °F - 48.2 °F 100% 30.39 in 10.0 mi SSW 6.9 mph - N/A   Light Drizzle
1:35 AM 48.2 °F - 48.2 °F 100% 30.39 in 10.0 mi SSW 6.9 mph - N/A   Light Drizzle
1:55 AM 48.2 °F - 48.2 °F 100% 30.39 in 10.0 mi SSW 4.6 mph - N/A   Light Drizzle
2:15 AM 48.2 °F - 48.2 °F 100% 30.39 in 10.0 mi SSW 4.6 mph - N/A   Light Drizzle
2:35 AM 48.2 °F - 48.2 °F 100% 30.39 in 10.0 mi SSW 4.6 mph - N/A   Light Drizzle
2:55 AM 48.2 °F - 48.2 °F 100% 30.38 in 10.0 mi South 5.8 mph - N/A   Light Drizzle
3:15 AM 48.2 °F - 48.2 °F 100% 30.38 in 10.0 mi SSW 4.6 mph - N/A   Light Drizzle
3:35 AM 48.2 °F - 48.2 °F 100% 30.38 in 10.0 mi Calm Calm - N/A   Light Drizzle
3:55 AM 48.2 °F - 46.4 °F 93% 30.38 in 6.0 mi Calm Calm - N/A   Light Drizzle
4:15 AM 46.4 °F 45.2 °F 44.6 °F 93% 30.37 in 1.2 mi South 3.5 mph - N/A   Light Drizzle
4:35 AM 48.2 °F - 46.4 °F 93% 30.36 in 4.0 mi South 3.5 mph - N/A   Light Drizzle
4:55 AM 46.4 °F - 46.4 °F 100% 30.37 in 3.0 mi Calm Calm - N/A   Light Drizzle
5:15 AM 44.6 °F - 44.6 °F 100% 30.37 in 0.2 mi Calm Calm - N/A   Light Drizzle
5:35 AM 44.6 °F - 44.6 °F 100% 30.38 in 0.8 mi Calm Calm - N/A   Light Drizzle
6:15 AM 44.6 °F - 44.6 °F 100% 30.38 in 10.0 mi Calm Calm - N/A   Light Drizzle
6:35 AM 48.2 °F - 46.4 °F 93% 30.39 in 10.0 mi SSW 3.5 mph - N/A   Light Drizzle
6:55 AM 48.2 °F - 48.2 °F 100% 30.39 in 10.0 mi SSW 3.5 mph - N/A   Light Drizzle
7:55 AM 51.8 °F - 51.8 °F 100% 30.38 in 10.0 mi SSW 5.8 mph - N/A   Light Drizzle
8:15 AM 53.6 °F - 51.8 °F 94% 30.39 in 10.0 mi SSW 5.8 mph - N/A   Light Drizzle
8:35 AM 53.6 °F - 53.6 °F 100% 30.38 in 10.0 mi SSW 6.9 mph - N/A   Light Drizzle
8:55 AM 55.4 °F - 53.6 °F 94% 30.38 in 10.0 mi SW 6.9 mph - N/A   Scattered Clouds
9:15 AM 55.4 °F - 53.6 °F 94% 30.38 in 10.0 mi SSW 6.9 mph - N/A   Clear
9:35 AM 57.2 °F - 53.6 °F 88% 30.38 in 10.0 mi SW 4.6 mph - N/A   Clear
9:55 AM 57.2 °F - 53.6 °F 88% 30.38 in 10.0 mi SSW 5.8 mph - N/A   Clear
10:15 AM 57.2 °F - 53.6 °F 88% 30.37 in 10.0 mi SSW 5.8 mph - N/A   Clear
10:35 AM 59.0 °F - 53.6 °F 82% 30.37 in 10.0 mi SSW 6.9 mph - N/A   Clear
10:55 AM 60.8 °F - 53.6 °F 77% 30.36 in 10.0 mi SW 5.8 mph - N/A   Clear
11:15 AM 60.8 °F - 53.6 °F 77% 30.36 in 10.0 mi SW 6.9 mph - N/A   Clear
11:35 AM 62.6 °F - 53.6 °F 72% 30.35 in 10.0 mi SW 4.6 mph - N/A   Clear
11:55 AM 62.6 °F - 53.6 °F 72% 30.34 in 10.0 mi SSW 5.8 mph - N/A   Clear
12:15 PM 62.6 °F - 51.8 °F 68% 30.33 in 10.0 mi SSW 6.9 mph - N/A   Clear
12:35 PM 62.6 °F - 51.8 °F 68% 30.33 in 10.0 mi SSW 6.9 mph - N/A   Clear
12:55 PM 62.6 °F - 51.8 °F 68% 30.33 in 10.0 mi South 8.1 mph - N/A   Clear
1:15 PM 62.6 °F - 51.8 °F 68% 30.32 in 10.0 mi SSW 10.4 mph - N/A   Clear
1:35 PM 62.6 °F - 51.8 °F 68% 30.32 in 10.0 mi SSW 6.9 mph - N/A   Clear
1:55 PM 62.6 °F - 51.8 °F 68% 30.31 in 10.0 mi SSW 5.8 mph - N/A   Clear
2:15 PM 62.6 °F - 51.8 °F 68% 30.31 in 10.0 mi SSW 10.4 mph - N/A   Clear
2:35 PM 60.8 °F - 53.6 °F 77% 30.30 in 10.0 mi SSE 5.8 mph - N/A   Clear
2:55 PM 59.0 °F - 51.8 °F 77% 30.29 in 10.0 mi SE 6.9 mph - N/A   Clear
3:15 PM 60.8 °F - 51.8 °F 72% 30.29 in 10.0 mi SSE 5.8 mph - N/A   Clear
3:35 PM 55.4 °F - 51.8 °F 88% 30.29 in 10.0 mi SE 5.8 mph - N/A   Clear
3:55 PM 55.4 °F - 51.8 °F 88% 30.29 in 10.0 mi South 5.8 mph - N/A   Clear
4:15 PM 55.4 °F - 51.8 °F 88% 30.29 in 10.0 mi SE 5.8 mph - N/A   Clear
4:35 PM 53.6 °F - 51.8 °F 94% 30.29 in 10.0 mi SSE 4.6 mph - N/A   Clear
5:15 PM 53.6 °F - 51.8 °F 94% 30.28 in 10.0 mi SSE 3.5 mph - N/A   Clear
5:35 PM 53.6 °F - 50.0 °F 88% 30.28 in 10.0 mi South 4.6 mph - N/A   Clear
5:55 PM 51.8 °F - 50.0 °F 94% 30.28 in 10.0 mi South 4.6 mph - N/A   Clear
6:15 PM 51.8 °F - 50.0 °F 94% 30.29 in 10.0 mi SSW 4.6 mph - N/A   Clear
6:35 PM 51.8 °F - 50.0 °F 94% 30.29 in 10.0 mi South 4.6 mph - N/A   Clear
6:55 PM 51.8 °F - 50.0 °F 94% 30.29 in 10.0 mi SSW 4.6 mph - N/A   Clear
7:15 PM 51.8 °F - 50.0 °F 94% 30.29 in 9.0 mi SSW 3.5 mph - N/A   Partly Cloudy
7:35 PM 51.8 °F - 50.0 °F 94% 30.29 in 10.0 mi SSW 3.5 mph - N/A   Mostly Cloudy
7:55 PM 51.8 °F - 50.0 °F 94% 30.29 in 10.0 mi South 4.6 mph - N/A   Mostly Cloudy
8:15 PM 51.8 °F - 50.0 °F 94% 30.29 in 10.0 mi South 3.5 mph - N/A   Mostly Cloudy
8:35 PM 51.8 °F - 50.0 °F 94% 30.29 in 10.0 mi South 4.6 mph - N/A   Overcast
8:55 PM 51.8 °F - 51.8 °F 100% 30.29 in 10.0 mi SSW 4.6 mph - N/A   Overcast
9:15 PM 51.8 °F - 51.8 °F 100% 30.28 in 10.0 mi South 4.6 mph - N/A   Overcast
9:35 PM 51.8 °F - 51.8 °F 100% 30.27 in 10.0 mi South 3.5 mph - N/A   Overcast
9:55 PM 51.8 °F - 51.8 °F 100% 30.27 in 10.0 mi Calm Calm - N/A   Overcast
10:15 PM 51.8 °F - 51.8 °F 100% 30.27 in 10.0 mi SSW 3.5 mph - N/A   Overcast
10:35 PM 51.8 °F - 51.8 °F 100% 30.27 in 10.0 mi SSW 5.8 mph - N/A   Overcast
10:55 PM 51.8 °F - 51.8 °F 100% 30.26 in 10.0 mi SSW 4.6 mph - N/A   Overcast
11:15 PM 51.8 °F - 51.8 °F 100% 30.26 in 10.0 mi SSW 4.6 mph - N/A   Mostly Cloudy
11:35 PM 53.6 °F - 51.8 °F 94% 30.25 in 10.0 mi SSW 4.6 mph - N/A   Mostly Cloudy
11:55 PM 53.6 °F - 51.8 °F 94% 30.24 in 10.0 mi SSW 4.6 mph - N/A   Overcast